When you browse on this site, cookies collect data to enhance your experience and personalize the content and advertising you see.
Visit our Privacy Policy to learn more. By continuing to use the site, you agree to this use of cookies and data.
  • In Netherlands
  • List of Countries
  • For 7 days
  • Water Temperature
  • Satellite Maps
  • Weather Map
  • Weather Widgets
  • user-avatar
    Login

    Hourly Weather Banfora

    Today, 21 May, Tuesday

    Time Temperature Precipitation Wind Pressure Humidity
    00:00 +31°C° 0 mm 2 mps 732 mmHg 67%
    01:00 +30°C° 0.3 mm 2 mps 732 mmHg 71%
    02:00 +29°C° 0.3 mm 2 mps 732 mmHg 75%
    03:00 +29°C° 0.3 mm 2 mps 732 mmHg 79%
    04:00 +28°C° 0 mm 2 mps 732 mmHg 81%
    05:00 +28°C° 0 mm 2 mps 732 mmHg 83%
    06:00 +27°C° 0 mm 2 mps 732 mmHg 84%
    07:00 +29°C° 0 mm 2 mps 732 mmHg 80%
    08:00 +30°C° 0 mm 2 mps 733 mmHg 76%
    09:00 +31°C° 0 mm 2 mps 733 mmHg 72%
    10:00 +32°C° 0 mm 2 mps 733 mmHg 66%
    11:00 +35°C° 0 mm 2 mps 733 mmHg 59%
    12:00 +37°C° 0 mm 2 mps 733 mmHg 50%
    13:00 +37°C° 0 mm 1 mps 732 mmHg 47%
    14:00 +39°C° 0 mm 1 mps 732 mmHg 45%
    15:00 +39°C° 0 mm 1 mps 731 mmHg 42%
    16:00 +39°C° 0 mm 1 mps 731 mmHg 45%
    17:00 +37°C° 0 mm 1 mps 731 mmHg 48%
    18:00 +36°C° 0 mm 1 mps 731 mmHg 51%
    19:00 +35°C° 0 mm 1 mps 731 mmHg 53%
    20:00 +34°C° 0 mm 1 mps 731 mmHg 54%
    21:00 +33°C° 0 mm 1 mps 731 mmHg 56%
    22:00 +33°C° 0 mm 1 mps 732 mmHg 56%
    23:00 +32°C° 0 mm 1 mps 732 mmHg 57%

    Tomorrow, 22 May, Wednesday

    Time Temperature Precipitation Wind Pressure Humidity
    00:00 +32°C° 0 mm 1 mps 732 mmHg 57%
    01:00 +31°C° 0 mm 2 mps 732 mmHg 61%
    02:00 +31°C° 0 mm 2 mps 732 mmHg 65%
    03:00 +30°C° 0 mm 3 mps 731 mmHg 69%
    04:00 +29°C° 0 mm 2 mps 731 mmHg 72%
    05:00 +29°C° 0 mm 2 mps 732 mmHg 75%
    06:00 +29°C° 0 mm 1 mps 732 mmHg 78%
    07:00 +29°C° 0 mm 1 mps 732 mmHg 74%
    08:00 +30°C° 0 mm 1 mps 733 mmHg 70%
    09:00 +31°C° 0 mm 1 mps 733 mmHg 67%
    10:00 +33°C° 0 mm 1 mps 733 mmHg 62%
    11:00 +35°C° 0 mm 2 mps 733 mmHg 56%
    12:00 +37°C° 0 mm 2 mps 733 mmHg 51%
    13:00 +36°C° 0 mm 1 mps 732 mmHg 48%
    14:00 +37°C° 0 mm 1 mps 731 mmHg 45%
    15:00 +39°C° 0 mm 1 mps 731 mmHg 42%
    16:00 +37°C° 0 mm 1 mps 731 mmHg 45%
    17:00 +36°C° 0 mm 1 mps 730 mmHg 48%
    18:00 +35°C° 0 mm 1 mps 730 mmHg 51%
    19:00 +35°C° 0 mm 1 mps 731 mmHg 53%
    20:00 +34°C° 0 mm 1 mps 731 mmHg 54%
    21:00 +33°C° 0 mm 1 mps 732 mmHg 56%
    22:00 +32°C° 0.2 mm 1 mps 732 mmHg 58%
    23:00 +32°C° 0.2 mm 2 mps 732 mmHg 60%

    Day after tomorrow, 23 May, Thursday

    Time Temperature Precipitation Wind Pressure Humidity
    00:00 +31°C° 0.2 mm 2 mps 733 mmHg 62%
    01:00 +30°C° 2 mm 2 mps 732 mmHg 68%
    02:00 +30°C° 2 mm 2 mps 732 mmHg 73%
    03:00 +29°C° 2 mm 2 mps 731 mmHg 79%
    04:00 +29°C° 0.1 mm 2 mps 731 mmHg 79%
    05:00 +28°C° 0.1 mm 1 mps 731 mmHg 79%
    06:00 +28°C° 0.1 mm 1 mps 732 mmHg 78%
    07:00 +29°C° 0 mm 1 mps 732 mmHg 75%
    08:00 +30°C° 0 mm 1 mps 733 mmHg 72%
    09:00 +31°C° 0 mm 2 mps 733 mmHg 68%
    10:00 +34°C° 0 mm 2 mps 733 mmHg 63%
    11:00 +35°C° 0 mm 2 mps 733 mmHg 57%
    12:00 +36°C° 0 mm 2 mps 733 mmHg 52%
    13:00 +37°C° 0 mm 2 mps 732 mmHg 49%
    14:00 +37°C° 0 mm 2 mps 731 mmHg 46%
    15:00 +38°C° 0 mm 2 mps 731 mmHg 43%
    16:00 +37°C° 0 mm 2 mps 731 mmHg 47%
    17:00 +36°C° 0 mm 2 mps 731 mmHg 50%
    18:00 +35°C° 0 mm 1 mps 731 mmHg 54%
    19:00 +34°C° 0 mm 1 mps 731 mmHg 57%
    20:00 +33°C° 0 mm 1 mps 732 mmHg 59%
    21:00 +32°C° 0 mm 1 mps 732 mmHg 62%
    22:00 +31°C° 0 mm 2 mps 733 mmHg 66%
    23:00 +30°C° 0 mm 2 mps 733 mmHg 70%

    24 May, Friday

    Time Temperature Precipitation Wind Pressure Humidity
    00:00 +30°C° 0 mm 3 mps 733 mmHg 73%
    01:00 +29°C° 3.5 mm 3 mps 733 mmHg 77%
    02:00 +28°C° 3.5 mm 3 mps 732 mmHg 81%
    03:00 +27°C° 3.5 mm 3 mps 732 mmHg 85%
    04:00 +27°C° 0 mm 3 mps 732 mmHg 85%
    05:00 +27°C° 0 mm 2 mps 732 mmHg 86%
    06:00 +27°C° 0 mm 2 mps 732 mmHg 86%
    07:00 +28°C° 0 mm 2 mps 733 mmHg 82%
    08:00 +29°C° 0 mm 2 mps 733 mmHg 79%
    09:00 +29°C° 0 mm 2 mps 734 mmHg 76%
    10:00 +31°C° 0 mm 2 mps 734 mmHg 69%
    11:00 +34°C° 0 mm 2 mps 733 mmHg 62%
    12:00 +35°C° 0 mm 2 mps 733 mmHg 55%
    13:00 +35°C° 0 mm 2 mps 733 mmHg 53%
    14:00 +36°C° 0 mm 2 mps 732 mmHg 52%
    15:00 +36°C° 0 mm 2 mps 731 mmHg 50%
    16:00 +35°C° 0 mm 2 mps 731 mmHg 53%
    17:00 +35°C° 0 mm 2 mps 731 mmHg 56%
    18:00 +33°C° 0 mm 1 mps 731 mmHg 60%
    19:00 +32°C° 0 mm 1 mps 731 mmHg 61%
    20:00 +32°C° 0 mm 1 mps 732 mmHg 62%
    21:00 +31°C° 0 mm 1 mps 732 mmHg 64%
    22:00 +30°C° 0 mm 1 mps 732 mmHg 66%
    23:00 +30°C° 0 mm 1 mps 732 mmHg 67%

    25 May, Saturday

    Time Temperature Precipitation Wind Pressure Humidity
    00:00 +30°C° 0 mm 1 mps 732 mmHg 69%
    01:00 +29°C° 0 mm 1 mps 732 mmHg 70%
    02:00 +29°C° 0 mm 1 mps 731 mmHg 71%
    03:00 +29°C° 0 mm 1 mps 731 mmHg 72%
    04:00 +28°C° 0.1 mm 1 mps 731 mmHg 74%
    05:00 +28°C° 0.1 mm 1 mps 732 mmHg 77%
    06:00 +28°C° 0.1 mm 1 mps 732 mmHg 79%
    07:00 +28°C° 0.2 mm 1 mps 733 mmHg 78%
    08:00 +29°C° 0.2 mm 1 mps 734 mmHg 76%
    09:00 +30°C° 0.2 mm 1 mps 735 mmHg 75%
    10:00 +30°C° 1.2 mm 2 mps 734 mmHg 74%
    11:00 +30°C° 1.2 mm 2 mps 734 mmHg 74%
    12:00 +31°C° 1.2 mm 3 mps 734 mmHg 73%
    13:00 +31°C° 0 mm 2 mps 733 mmHg 70%
    14:00 +31°C° 0 mm 2 mps 732 mmHg 67%
    15:00 +32°C° 0 mm 1 mps 731 mmHg 64%
    16:00 +31°C° 0 mm 1 mps 731 mmHg 66%
    17:00 +31°C° 0 mm 1 mps 731 mmHg 69%
    18:00 +31°C° 0 mm 1 mps 731 mmHg 71%
    19:00 +28°C° 0 mm 0 mps 732 mmHg 73%
    20:00 +27°C° 0 mm 0 mps 732 mmHg 74%
    21:00 +27°C° 0 mm 0 mps 732 mmHg 76%
    22:00 +26°C° 0 mm 0 mps 732 mmHg 77%
    23:00 +26°C° 0 mm 0 mps 732 mmHg 78%

    26 May, Sunday

    Time Temperature Precipitation Wind Pressure Humidity
    00:00 +25°C° 0 mm 0 mps 732 mmHg 79%
    01:00 +27°C° 0 mm 1 mps 732 mmHg 81%
    02:00 +27°C° 0 mm 1 mps 732 mmHg 82%
    03:00 +27°C° 0 mm 1 mps 731 mmHg 84%
    04:00 +27°C° 0 mm 1 mps 732 mmHg 85%
    05:00 +26°C° 0 mm 1 mps 732 mmHg 85%
    06:00 +26°C° 0 mm 1 mps 732 mmHg 86%
    07:00 +28°C° 0 mm 2 mps 733 mmHg 80%
    08:00 +29°C° 0 mm 2 mps 733 mmHg 74%
    09:00 +30°C° 0 mm 3 mps 734 mmHg 68%
    10:00 +33°C° 0 mm 3 mps 733 mmHg 63%
    11:00 +34°C° 0 mm 3 mps 733 mmHg 57%
    12:00 +36°C° 0 mm 3 mps 733 mmHg 52%
    13:00 +36°C° 0 mm 2 mps 732 mmHg 49%
    14:00 +37°C° 0 mm 2 mps 731 mmHg 46%
    15:00 +37°C° 0 mm 1 mps 731 mmHg 43%
    16:00 +36°C° 0 mm 1 mps 731 mmHg 46%
    17:00 +35°C° 0 mm 1 mps 731 mmHg 49%
    18:00 +32°C° 0 mm 0 mps 731 mmHg 53%
    19:00 +32°C° 0 mm 0 mps 731 mmHg 54%
    20:00 +31°C° 0 mm 0 mps 732 mmHg 56%
    21:00 +30°C° 0 mm 0 mps 732 mmHg 57%
    22:00 +31°C° 0.1 mm 2 mps 732 mmHg 62%
    23:00 +30°C° 0.1 mm 3 mps 732 mmHg 67%
    Show more